Time,TemperatureF,DewpointF,PressureIn,WindDirection,WindDirectionDegrees,WindSpeedMPH,WindSpeedGustMPH,Humidity,HourlyPrecipIn,Conditions,Clouds,dailyrainin,SoftwareType,DateUTC
2013-03-10 00:01:00,46.0,39.0,30.08,East,84,0.0,4.0,75,0.00,,,0.01,,2013-03-10 07:01:00,
2013-03-10 00:11:00,45.0,38.0,30.09,East,85,0.0,2.0,76,0.00,,,0.01,,2013-03-10 07:11:00,
2013-03-10 00:21:00,45.0,38.0,30.09,East,85,0.0,2.0,76,0.00,,,0.01,,2013-03-10 07:21:00,
2013-03-10 00:31:00,45.0,38.0,30.09,East,86,0.0,4.0,76,0.00,,,0.01,,2013-03-10 07:31:00,
2013-03-10 00:41:00,45.0,38.0,30.09,East,86,0.0,4.0,76,0.00,,,0.01,,2013-03-10 07:41:00,
2013-03-10 00:52:00,45.0,38.0,30.09,East,86,0.0,4.0,76,0.00,,,0.01,,2013-03-10 07:52:00,
2013-03-10 01:01:00,45.0,38.0,30.09,East,86,0.0,0.0,76,0.00,,,0.01,,2013-03-10 08:01:00,
2013-03-10 01:11:00,45.0,38.0,30.10,East,86,0.0,0.0,75,0.00,,,0.01,,2013-03-10 08:11:00,
2013-03-10 01:21:00,45.0,38.0,30.10,East,86,0.0,0.0,75,0.00,,,0.01,,2013-03-10 08:21:00,
2013-03-10 01:31:00,45.0,38.0,30.10,East,86,0.0,1.0,75,0.00,,,0.01,,2013-03-10 08:31:00,
2013-03-10 01:42:00,45.0,38.0,30.10,East,86,0.0,0.0,75,0.00,,,0.01,,2013-03-10 08:42:00,
2013-03-10 01:51:00,45.0,38.0,30.10,East,86,0.0,0.0,75,0.00,,,0.01,,2013-03-10 08:51:00,
2013-03-10 02:01:00,44.0,37.0,30.10,East,86,0.0,1.0,77,0.00,,,0.01,,2013-03-10 09:01:00,
2013-03-10 02:11:00,44.0,38.0,30.11,East,86,0.0,1.0,78,0.00,,,0.01,,2013-03-10 09:11:00,
2013-03-10 02:21:00,44.0,38.0,30.11,East,86,0.0,1.0,78,0.00,,,0.01,,2013-03-10 09:21:00,
2013-03-10 02:31:00,43.0,37.0,30.10,East,86,0.0,1.0,78,0.00,,,0.01,,2013-03-10 09:31:00,
2013-03-10 02:41:00,43.0,37.0,30.10,East,86,0.0,0.0,79,0.00,,,0.01,,2013-03-10 09:41:00,
2013-03-10 02:51:00,43.0,37.0,30.10,East,86,0.0,0.0,79,0.00,,,0.01,,2013-03-10 09:51:00,
2013-03-10 03:01:00,42.0,36.0,30.10,East,86,0.0,1.0,79,0.00,,,0.01,,2013-03-10 10:01:00,
2013-03-10 03:11:00,42.0,36.0,30.10,East,86,0.0,1.0,79,0.00,,,0.01,,2013-03-10 10:11:00,
2013-03-10 03:21:00,42.0,36.0,30.09,East,86,1.0,2.0,80,0.00,,,0.01,,2013-03-10 10:21:00,
2013-03-10 03:31:00,41.0,35.0,30.10,East,86,0.0,0.0,80,0.00,,,0.01,,2013-03-10 10:31:00,
2013-03-10 03:41:00,41.0,36.0,30.09,East,86,0.0,0.0,81,0.00,,,0.01,,2013-03-10 10:41:00,
2013-03-10 03:52:00,41.0,36.0,30.09,East,86,0.0,0.0,81,0.00,,,0.01,,2013-03-10 10:52:00,
2013-03-10 04:01:00,41.0,36.0,30.10,East,86,0.0,1.0,81,0.00,,,0.01,,2013-03-10 11:01:00,
2013-03-10 04:11:00,42.0,37.0,30.10,East,86,0.0,1.0,81,0.00,,,0.01,,2013-03-10 11:11:00,
2013-03-10 04:21:00,42.0,37.0,30.10,East,86,0.0,1.0,81,0.00,,,0.01,,2013-03-10 11:21:00,
2013-03-10 04:31:00,42.0,37.0,30.10,East,86,0.0,0.0,81,0.00,,,0.01,,2013-03-10 11:31:00,
2013-03-10 04:41:00,42.0,37.0,30.10,East,86,0.0,0.0,81,0.00,,,0.01,,2013-03-10 11:41:00,
2013-03-10 04:52:00,41.0,36.0,30.11,East,86,0.0,0.0,81,0.00,,,0.01,,2013-03-10 11:52:00,
2013-03-10 05:01:00,40.0,35.0,30.11,East,86,0.0,2.0,82,0.00,,,0.01,,2013-03-10 12:01:00,
2013-03-10 05:11:00,40.0,35.0,30.11,East,86,0.0,2.0,82,0.00,,,0.01,,2013-03-10 12:11:00,
2013-03-10 05:21:00,40.0,35.0,30.11,East,86,0.0,1.0,83,0.00,,,0.01,,2013-03-10 12:21:00,
2013-03-10 05:31:00,39.0,34.0,30.11,East,86,0.0,2.0,83,0.00,,,0.01,,2013-03-10 12:31:00,
2013-03-10 05:41:00,39.0,34.0,30.11,East,86,0.0,2.0,83,0.00,,,0.01,,2013-03-10 12:41:00,
2013-03-10 05:51:00,39.0,35.0,30.11,East,86,0.0,2.0,85,0.00,,,0.01,,2013-03-10 12:51:00,
2013-03-10 06:01:00,39.0,35.0,30.11,East,86,0.0,0.0,85,0.00,,,0.01,,2013-03-10 13:01:00,
2013-03-10 06:11:00,39.0,35.0,30.11,East,86,0.0,0.0,85,0.00,,,0.01,,2013-03-10 13:11:00,
2013-03-10 06:21:00,39.0,35.0,30.11,East,86,0.0,0.0,85,0.00,,,0.01,,2013-03-10 13:21:00,
2013-03-10 06:31:00,39.0,35.0,30.12,East,86,0.0,1.0,85,0.00,,,0.01,,2013-03-10 13:31:00,
2013-03-10 06:41:00,39.0,35.0,30.12,East,86,0.0,1.0,85,0.00,,,0.01,,2013-03-10 13:41:00,
2013-03-10 06:52:00,39.0,35.0,30.12,East,86,0.0,0.0,85,0.00,,,0.01,,2013-03-10 13:52:00,
2013-03-10 07:01:00,39.0,35.0,30.13,East,86,0.0,0.0,85,0.00,,,0.01,,2013-03-10 14:01:00,
2013-03-10 07:11:00,39.0,35.0,30.13,East,86,0.0,0.0,85,0.00,,,0.01,,2013-03-10 14:11:00,
2013-03-10 07:21:00,39.0,35.0,30.14,East,86,0.0,0.0,87,0.00,,,0.01,,2013-03-10 14:21:00,
2013-03-10 07:31:00,40.0,36.0,30.14,East,86,0.0,2.0,87,0.00,,,0.01,,2013-03-10 14:31:00,
2013-03-10 07:41:00,40.0,36.0,30.14,East,86,0.0,2.0,87,0.00,,,0.01,,2013-03-10 14:41:00,
2013-03-10 07:51:00,43.0,38.0,30.14,ENE,77,1.0,4.0,82,0.00,,,0.01,,2013-03-10 14:51:00,
2013-03-10 08:01:00,45.0,38.0,30.15,South,186,1.0,6.0,77,0.00,,,0.01,,2013-03-10 15:01:00,
2013-03-10 08:11:00,45.0,38.0,30.15,South,186,1.0,6.0,77,0.00,,,0.01,,2013-03-10 15:11:00,
2013-03-10 08:21:00,46.0,39.0,30.14,South,187,1.0,6.0,75,0.00,,,0.01,,2013-03-10 15:21:00,
2013-03-10 08:31:00,48.0,39.0,30.14,WSW,242,2.0,5.0,71,0.00,,,0.01,,2013-03-10 15:31:00,
2013-03-10 08:41:00,48.0,39.0,30.14,WSW,242,2.0,5.0,71,0.00,,,0.01,,2013-03-10 15:41:00,
2013-03-10 08:52:00,50.0,40.0,30.14,West,274,2.0,5.0,68,0.00,,,0.01,,2013-03-10 15:52:00,
2013-03-10 09:01:00,51.0,39.0,30.15,WSW,240,2.0,5.0,63,0.00,,,0.01,,2013-03-10 16:01:00,
2013-03-10 09:11:00,51.0,39.0,30.15,WSW,240,2.0,5.0,63,0.00,,,0.01,,2013-03-10 16:11:00,
2013-03-10 09:21:00,51.0,38.0,30.15,West,274,2.0,5.0,61,0.00,,,0.01,,2013-03-10 16:21:00,
2013-03-10 09:31:00,52.0,39.0,30.16,West,259,2.0,5.0,60,0.00,,,0.01,,2013-03-10 16:31:00,
2013-03-10 09:41:00,52.0,39.0,30.16,West,259,2.0,5.0,60,0.00,,,0.01,,2013-03-10 16:41:00,
2013-03-10 09:52:00,52.0,38.0,30.16,WSW,242,1.0,4.0,58,0.00,,,0.01,,2013-03-10 16:52:00,
2013-03-10 10:01:00,53.0,38.0,30.16,West,274,3.0,7.0,57,0.00,,,0.01,,2013-03-10 17:01:00,
2013-03-10 10:11:00,53.0,38.0,30.16,West,274,3.0,7.0,57,0.00,,,0.01,,2013-03-10 17:11:00,
2013-03-10 10:21:00,54.0,38.0,30.16,WNW,301,2.0,7.0,55,0.00,,,0.01,,2013-03-10 17:21:00,
2013-03-10 10:31:00,55.0,38.0,30.15,West,263,2.0,7.0,52,0.00,,,0.01,,2013-03-10 17:31:00,
2013-03-10 10:41:00,55.0,38.0,30.15,West,263,2.0,7.0,52,0.00,,,0.01,,2013-03-10 17:41:00,
2013-03-10 10:51:00,56.0,38.0,30.15,SSW,212,2.0,7.0,50,0.00,,,0.01,,2013-03-10 17:51:00,
2013-03-10 11:01:00,57.0,38.0,30.15,South,174,2.0,6.0,49,0.00,,,0.01,,2013-03-10 18:01:00,
2013-03-10 11:11:00,58.0,38.0,30.14,WSW,253,4.0,9.0,48,0.00,,,0.01,,2013-03-10 18:11:00,
2013-03-10 11:21:00,58.0,38.0,30.14,WSW,253,4.0,9.0,48,0.00,,,0.01,,2013-03-10 18:21:00,
2013-03-10 11:31:00,57.0,37.0,30.14,NW,312,3.0,9.0,47,0.00,,,0.01,,2013-03-10 18:31:00,
2013-03-10 11:41:00,57.0,37.0,30.14,NW,312,3.0,9.0,47,0.00,,,0.01,,2013-03-10 18:41:00,
2013-03-10 11:52:00,58.0,37.0,30.13,West,277,4.0,10.0,45,0.00,,,0.01,,2013-03-10 18:52:00,
2013-03-10 12:01:00,59.0,37.0,30.13,NW,313,4.0,9.0,44,0.00,,,0.01,,2013-03-10 19:01:00,
2013-03-10 12:11:00,59.0,37.0,30.13,NW,313,4.0,9.0,44,0.00,,,0.01,,2013-03-10 19:11:00,
2013-03-10 12:21:00,60.0,37.0,30.12,South,174,2.0,8.0,42,0.00,,,0.01,,2013-03-10 19:21:00,
2013-03-10 12:31:00,61.0,36.0,30.12,WSW,249,4.0,10.0,40,0.00,,,0.00,,2013-03-10 19:31:00,
2013-03-10 12:41:00,61.0,36.0,30.12,WSW,249,4.0,10.0,40,0.00,,,0.00,,2013-03-10 19:41:00,
2013-03-10 12:52:00,60.0,36.0,30.11,NW,306,3.0,10.0,40,0.00,,,0.00,,2013-03-10 19:52:00,
2013-03-10 13:01:00,61.0,36.0,30.10,South,178,3.0,6.0,39,0.00,,,0.00,,2013-03-10 20:01:00,
2013-03-10 13:12:00,61.0,36.0,30.10,South,178,3.0,6.0,39,0.00,,,0.00,,2013-03-10 20:12:00,
2013-03-10 13:21:00,64.0,37.0,30.09,WSW,242,5.0,11.0,37,0.00,,,0.00,,2013-03-10 20:21:00,
2013-03-10 13:31:00,63.0,36.0,30.08,SW,234,4.0,11.0,36,0.00,,,0.00,,2013-03-10 20:31:00,
2013-03-10 13:42:00,63.0,36.0,30.08,SW,234,4.0,11.0,36,0.00,,,0.00,,2013-03-10 20:42:00,
2013-03-10 13:52:00,63.0,36.0,30.07,ESE,116,3.0,8.0,36,0.00,,,0.00,,2013-03-10 20:52:00,
2013-03-10 14:01:00,63.0,34.0,30.07,SSE,155,3.0,10.0,34,0.00,,,0.00,,2013-03-10 21:01:00,
2013-03-10 14:11:00,63.0,34.0,30.07,SSE,155,3.0,10.0,34,0.00,,,0.00,,2013-03-10 21:11:00,
2013-03-10 14:22:00,64.0,35.0,30.06,SSW,201,4.0,9.0,34,0.00,,,0.00,,2013-03-10 21:22:00,
2013-03-10 14:31:00,64.0,34.0,30.05,North,357,3.0,14.0,33,0.00,,,0.00,,2013-03-10 21:31:00,
2013-03-10 14:41:00,64.0,34.0,30.05,North,357,3.0,14.0,33,0.00,,,0.00,,2013-03-10 21:41:00,
2013-03-10 14:52:00,65.0,36.0,30.05,SW,228,4.0,8.0,34,0.00,,,0.00,,2013-03-10 21:52:00,
2013-03-10 15:01:00,65.0,34.0,30.05,SE,124,5.0,13.0,31,0.00,,,0.00,,2013-03-10 22:01:00,
2013-03-10 15:11:00,65.0,34.0,30.05,SE,124,5.0,13.0,31,0.00,,,0.00,,2013-03-10 22:11:00,
2013-03-10 15:21:00,66.0,34.0,30.05,West,262,4.0,12.0,30,0.00,,,0.00,,2013-03-10 22:21:00,
2013-03-10 15:32:00,66.0,33.0,30.05,South,187,6.0,12.0,29,0.00,,,0.00,,2013-03-10 22:32:00,
2013-03-10 15:42:00,66.0,33.0,30.05,South,187,6.0,12.0,29,0.00,,,0.00,,2013-03-10 22:42:00,
2013-03-10 15:52:00,65.0,33.0,30.05,South,178,5.0,12.0,30,0.00,,,0.00,,2013-03-10 22:52:00,
2013-03-10 16:02:00,65.0,32.0,30.05,SSW,193,4.0,10.0,29,0.00,,,0.00,,2013-03-10 23:02:00,
2013-03-10 16:11:00,66.0,31.0,30.04,South,172,3.0,9.0,27,0.00,,,0.00,,2013-03-10 23:11:00,
2013-03-10 16:21:00,66.0,31.0,30.04,South,172,3.0,9.0,27,0.00,,,0.00,,2013-03-10 23:21:00,
2013-03-10 16:31:00,65.0,31.0,30.04,SE,133,6.0,13.0,28,0.00,,,0.00,,2013-03-10 23:31:00,
2013-03-10 16:41:00,65.0,31.0,30.04,SE,133,6.0,13.0,28,0.00,,,0.00,,2013-03-10 23:41:00,
2013-03-10 16:52:00,65.0,31.0,30.04,SE,146,4.0,13.0,28,0.00,,,0.00,,2013-03-10 23:52:00,
2013-03-10 17:01:00,64.0,31.0,30.04,SSE,151,2.0,6.0,29,0.00,,,0.00,,2013-03-11 00:01:00,
2013-03-10 17:12:00,64.0,31.0,30.04,SSE,151,2.0,6.0,29,0.00,,,0.00,,2013-03-11 00:12:00,
2013-03-10 17:22:00,65.0,31.0,30.04,SSE,162,1.0,6.0,28,0.00,,,0.00,,2013-03-11 00:22:00,
2013-03-10 17:32:00,65.0,30.0,30.05,ESE,122,1.0,3.0,27,0.00,,,0.00,,2013-03-11 00:32:00,
2013-03-10 17:42:00,65.0,30.0,30.05,ESE,122,1.0,3.0,27,0.00,,,0.00,,2013-03-11 00:42:00,
2013-03-10 17:52:00,64.0,27.0,30.05,ENE,71,4.0,10.0,25,0.00,,,0.00,,2013-03-11 00:52:00,
2013-03-10 18:02:00,64.0,28.0,30.05,ENE,64,3.0,10.0,26,0.00,,,0.00,,2013-03-11 01:02:00,
2013-03-10 18:11:00,64.0,28.0,30.05,ENE,64,3.0,10.0,26,0.00,,,0.00,,2013-03-11 01:11:00,
2013-03-10 18:22:00,63.0,28.0,30.06,East,84,3.0,9.0,26,0.00,,,0.00,,2013-03-11 01:22:00,
2013-03-10 18:31:00,62.0,27.0,30.06,NE,51,3.0,9.0,26,0.00,,,0.00,,2013-03-11 01:31:00,
2013-03-10 18:42:00,62.0,27.0,30.06,NE,51,3.0,9.0,26,0.00,,,0.00,,2013-03-11 01:42:00,
2013-03-10 18:53:00,61.0,28.0,30.07,NE,56,1.0,3.0,28,0.00,,,0.00,,2013-03-11 01:53:00,
2013-03-10 19:01:00,60.0,28.0,30.07,East,95,2.0,7.0,29,0.00,,,0.00,,2013-03-11 02:01:00,
2013-03-10 19:11:00,60.0,28.0,30.07,East,95,2.0,7.0,29,0.00,,,0.00,,2013-03-11 02:11:00,
2013-03-10 19:21:00,59.0,28.0,30.08,East,93,0.0,2.0,31,0.00,,,0.00,,2013-03-11 02:21:00,
2013-03-10 19:32:00,58.0,28.0,30.09,East,93,0.0,1.0,31,0.00,,,0.00,,2013-03-11 02:32:00,
2013-03-10 19:41:00,58.0,28.0,30.09,East,93,0.0,1.0,31,0.00,,,0.00,,2013-03-11 02:41:00,
2013-03-10 19:52:00,57.0,28.0,30.09,ESE,116,0.0,6.0,33,0.00,,,0.00,,2013-03-11 02:52:00,
2013-03-10 20:01:00,57.0,29.0,30.09,ESE,118,0.0,6.0,34,0.00,,,0.00,,2013-03-11 03:01:00,
2013-03-10 20:11:00,57.0,29.0,30.09,ESE,118,0.0,6.0,34,0.00,,,0.00,,2013-03-11 03:11:00,
2013-03-10 20:21:00,56.0,29.0,30.10,SSW,206,1.0,4.0,35,0.00,,,0.00,,2013-03-11 03:21:00,
2013-03-10 20:31:00,54.0,30.0,30.10,SSW,206,0.0,1.0,39,0.00,,,0.00,,2013-03-11 03:31:00,
2013-03-10 20:42:00,54.0,30.0,30.10,SSW,206,0.0,1.0,39,0.00,,,0.00,,2013-03-11 03:42:00,
2013-03-10 20:52:00,53.0,29.0,30.10,SSW,206,0.0,0.0,40,0.00,,,0.00,,2013-03-11 03:52:00,
2013-03-10 21:01:00,52.0,30.0,30.10,South,189,0.0,0.0,43,0.00,,,0.00,,2013-03-11 04:01:00,
2013-03-10 21:11:00,52.0,30.0,30.10,South,189,0.0,0.0,43,0.00,,,0.00,,2013-03-11 04:11:00,
2013-03-10 21:22:00,50.0,29.0,30.11,South,189,0.0,0.0,45,0.00,,,0.00,,2013-03-11 04:22:00,
2013-03-10 21:32:00,49.0,30.0,30.11,South,189,0.0,1.0,48,0.00,,,0.00,,2013-03-11 04:32:00,
2013-03-10 21:42:00,49.0,30.0,30.11,South,189,0.0,1.0,48,0.00,,,0.00,,2013-03-11 04:42:00,
2013-03-10 21:53:00,49.0,31.0,30.11,South,190,0.0,1.0,50,0.00,,,0.00,,2013-03-11 04:53:00,
2013-03-10 22:01:00,49.0,31.0,30.11,South,190,0.0,0.0,50,0.00,,,0.00,,2013-03-11 05:01:00,
2013-03-10 22:11:00,49.0,31.0,30.11,South,190,0.0,0.0,50,0.00,,,0.00,,2013-03-11 05:11:00,
2013-03-10 22:21:00,48.0,31.0,30.12,South,190,0.0,0.0,51,0.00,,,0.00,,2013-03-11 05:21:00,
2013-03-10 22:31:00,47.0,31.0,30.12,South,190,0.0,2.0,54,0.00,,,0.00,,2013-03-11 05:31:00,
2013-03-10 22:42:00,47.0,31.0,30.12,South,190,0.0,2.0,54,0.00,,,0.00,,2013-03-11 05:42:00,
2013-03-10 22:52:00,46.0,31.0,30.13,South,184,0.0,2.0,55,0.00,,,0.00,,2013-03-11 05:52:00,
2013-03-10 23:01:00,47.0,31.0,30.13,South,176,0.0,2.0,53,0.00,,,0.00,,2013-03-11 06:01:00,
2013-03-10 23:11:00,47.0,31.0,30.13,South,176,0.0,2.0,53,0.00,,,0.00,,2013-03-11 06:11:00,
2013-03-10 23:21:00,46.0,30.0,30.14,South,175,0.0,0.0,54,0.00,,,0.00,,2013-03-11 06:21:00,
2013-03-10 23:32:00,44.0,30.0,30.14,South,175,0.0,1.0,57,0.00,,,0.00,,2013-03-11 06:32:00,
2013-03-10 23:42:00,44.0,30.0,30.14,South,175,0.0,1.0,57,0.00,,,0.00,,2013-03-11 06:42:00,
2013-03-10 23:52:00,44.0,30.0,30.14,South,174,0.0,1.0,58,0.00,,,0.00,,2013-03-11 06:52:00,